Libertyville, IL

1:27 PM CDT on July 27, 2016 (GMT -0500)
Chicago Executive

Weather History for KPWK - January, 2013

Change the Weather History Date:

Saturday, January 12, 2013

  Actual Average Record
Temperature  
Mean Temperature 42 °F 24 °F  
Max Temperature 53 °F 31 °F 61 °F (2005)
Min Temperature 30 °F 16 °F -7 °F (1997)
Degree Days  
Heating Degree Days 23 42  
Month to date heating degree days 412 493  
Since 1 July heating degree days 2635 2910  
Cooling Degree Days 0 0  
Month to date cooling degree days 0 0  
Year to date cooling degree days 0 0  
Moisture  
Dew Point 34 °F    
Average Humidity 73    
Maximum Humidity 86    
Minimum Humidity 54    
Precipitation  
Precipitation T in 0.05 in 0.59 in (2005)
Month to date precipitation 0.92 0.63  
Year to date precipitation 0.92 0.63  
Sea Level Pressure  
Sea Level Pressure 29.88 in    
Wind  
Wind Speed 11 mph (West)    
Max Wind Speed 21 mph    
Max Gust Speed 29 mph    
Visibility 10 miles    
Events Rain    
T = Trace of Precipitation, MM = Missing Value Source: NWS Daily Summary

Daily Weather History Graph

Daily Weather History Graph

Search for Another Location

Airport or City:

Trip Planner

Search our weather history database for the weather conditions in past years. The results will help you decide how hot, cold, wet, or windy it might be!

Date:

Astronomy

Jan. 12, 2013 Rise Set
Actual Time 7:18 AM CST 4:41 PM CST
Civil Twilight 6:47 AM CST 5:12 PM CST
Nautical Twilight 6:12 AM CST 5:47 PM CST
Astronomical Twilight 5:39 AM CST 6:21 PM CST
Moon 7:35 AM CST (1/12) 6:12 PM CST (1/12)
Length of Visible Light 10h 25m
Length of Day
9h 23m
New Moon, 1% of the Moon is Illuminated
Jan 12
New Moon
Jan 18
First Quarter
Jan 26
Full
Feb 3
Last Quarter
Feb 10
New

Hourly Weather History & Observations

Time (CST) Temp. Windchill Dew Point Humidity Pressure Visibility Wind Dir Wind Speed Gust Speed Precip Events Conditions
12:52 AM 52.0 °F - 46.9 °F 83% 29.73 in 10.0 mi SSW 15.0 mph 26.5 mph N/A   Partly Cloudy
1:52 AM 52.0 °F - 46.9 °F 83% 29.74 in 10.0 mi SSW 18.4 mph 24.2 mph N/A   Clear
2:52 AM 53.1 °F - 46.9 °F 80% 29.73 in 10.0 mi SSW 17.3 mph 25.3 mph N/A   Clear
3:52 AM 53.1 °F - 46.0 °F 77% 29.74 in 10.0 mi SSW 12.7 mph 25.3 mph N/A   Clear
4:52 AM 52.0 °F - 46.0 °F 80% 29.75 in 10.0 mi SSW 12.7 mph 20.7 mph N/A   Clear
5:52 AM 52.0 °F - 46.0 °F 80% 29.77 in 10.0 mi SW 11.5 mph - N/A   Clear
6:52 AM 52.0 °F - 46.0 °F 80% 29.81 in 10.0 mi SSW 15.0 mph 21.9 mph N/A   Clear
8:52 AM 51.1 °F - 44.1 °F 77% 29.87 in 10.0 mi WSW 15.0 mph 23.0 mph N/A   Partly Cloudy
9:52 AM 48.0 °F - 32.0 °F 54% 29.90 in 9.0 mi WSW 15.0 mph 19.6 mph N/A   Clear
11:52 AM 42.1 °F 36.1 °F 30.9 °F 65% 29.92 in 10.0 mi West 10.4 mph - N/A   Clear
12:52 PM 41.0 °F 34.3 °F 27.0 °F 57% 29.92 in 10.0 mi West 11.5 mph 20.7 mph N/A   Clear
1:52 PM 39.9 °F 33.9 °F 30.0 °F 68% 29.94 in 10.0 mi WSW 9.2 mph - N/A   Clear
2:52 PM 39.9 °F 34.5 °F 28.0 °F 63% 29.95 in 10.0 mi WSW 8.1 mph - N/A   Scattered Clouds
3:52 PM 37.9 °F 33.5 °F 28.0 °F 68% 29.99 in 10.0 mi West 5.8 mph - N/A   Overcast
4:52 PM 36.0 °F 29.0 °F 25.0 °F 64% 29.99 in 10.0 mi WNW 9.2 mph - N/A   Mostly Cloudy
5:52 PM 34.0 °F 26.6 °F 23.0 °F 64% 29.97 in 10.0 mi WNW 9.2 mph - N/A   Overcast
6:52 PM 34.0 °F - 24.1 °F 67% 29.97 in 10.0 mi Calm Calm - N/A   Overcast
7:52 PM 34.0 °F 26.6 °F 25.0 °F 70% 29.95 in 10.0 mi NW 9.2 mph - 0.00 in   Overcast
9:52 PM 30.9 °F 22.2 °F 25.0 °F 79% 29.96 in 10.0 mi NNW 10.4 mph - 0.00 in   Overcast
10:41 PM 30.2 °F 21.9 °F 26.6 °F 86% 29.91 in 6.0 mi NNW 9.2 mph - 0.00 in Rain Light Freezing Rain
10:52 PM 30.0 °F 22.4 °F 26.1 °F 85% 29.93 in 7.0 mi NNW 8.1 mph - 0.00 in Rain Light Freezing Rain
11:59 PM 30.2 °F 25.4 °F 26.6 °F 86% 29.89 in 8.0 mi North 4.6 mph - 0.00 in   Overcast